TimeEST,TemperatureF,Dew PointF,Humidity,Sea Level PressureIn,VisibilityMPH,Wind Direction,Wind SpeedMPH,Gust SpeedMPH,PrecipitationIn,Events,Conditions,WindDirDegrees,DateUTC
12:56 AM,55.9,51.1,84,30.14,10.0,SW,16.1,-,N/A,,Clear,220,2011-11-28 05:56:00
1:56 AM,55.9,51.1,84,30.14,10.0,SSW,12.7,-,N/A,,Clear,210,2011-11-28 06:56:00
2:56 AM,55.0,51.1,86,30.14,10.0,SSW,10.4,-,N/A,,Clear,210,2011-11-28 07:56:00
3:56 AM,55.0,50.0,83,30.14,10.0,SSW,11.5,-,N/A,,Clear,210,2011-11-28 08:56:00
4:56 AM,55.0,50.0,83,30.13,10.0,SW,12.7,-,N/A,,Clear,220,2011-11-28 09:56:00
5:56 AM,55.0,50.0,83,30.14,10.0,SW,13.8,-,N/A,,Clear,220,2011-11-28 10:56:00
6:56 AM,55.0,51.1,86,30.15,10.0,SW,12.7,-,N/A,,Clear,220,2011-11-28 11:56:00
7:56 AM,55.0,51.1,86,30.16,10.0,SW,10.4,-,N/A,,Clear,220,2011-11-28 12:56:00
8:56 AM,57.0,52.0,83,30.17,10.0,SSW,10.4,-,N/A,,Partly Cloudy,210,2011-11-28 13:56:00
9:56 AM,59.0,52.0,78,30.17,10.0,SW,9.2,-,N/A,,Mostly Cloudy,230,2011-11-28 14:56:00
10:56 AM,61.0,52.0,72,30.16,10.0,SW,12.7,-,N/A,,Partly Cloudy,220,2011-11-28 15:56:00
11:56 AM,61.0,51.1,70,30.15,10.0,SW,11.5,-,N/A,,Clear,230,2011-11-28 16:56:00
12:56 PM,61.0,50.0,67,30.13,10.0,SW,13.8,-,N/A,,Clear,220,2011-11-28 17:56:00
1:56 PM,60.1,50.0,69,30.12,10.0,SW,10.4,-,N/A,,Clear,220,2011-11-28 18:56:00
2:56 PM,60.1,50.0,69,30.12,10.0,SW,12.7,-,N/A,,Clear,220,2011-11-28 19:56:00
3:56 PM,57.9,50.0,75,30.13,10.0,SW,6.9,-,N/A,,Clear,220,2011-11-28 20:56:00
4:56 PM,57.9,50.0,75,30.13,10.0,SW,9.2,-,N/A,,Clear,220,2011-11-28 21:56:00
5:56 PM,55.9,50.0,80,30.13,10.0,SW,9.2,-,N/A,,Clear,220,2011-11-28 22:56:00
6:56 PM,54.0,50.0,86,30.14,10.0,SW,6.9,-,N/A,,Clear,230,2011-11-28 23:56:00
7:56 PM,51.1,48.0,89,30.15,10.0,SW,5.8,-,N/A,,Clear,230,2011-11-29 00:56:00
8:56 PM,52.0,50.0,93,30.15,10.0,SSW,3.5,-,N/A,,Clear,210,2011-11-29 01:56:00
9:56 PM,50.0,46.9,89,30.15,9.0,Calm,Calm,-,N/A,,Clear,0,2011-11-29 02:56:00
10:56 PM,48.9,48.0,97,30.15,10.0,Calm,Calm,-,N/A,,Overcast,0,2011-11-29 03:56:00
11:56 PM,53.1,51.1,93,30.14,10.0,SSW,5.8,-,N/A,,Clear,210,2011-11-29 04:56:00